TimeCST,TemperatureF,Dew PointF,Humidity,Sea Level PressureIn,VisibilityMPH,Wind Direction,Wind SpeedMPH,Gust SpeedMPH,PrecipitationIn,Events,Conditions,WindDirDegrees,DateUTC
12:15 AM,30.2,24.8,80,29.95,10.0,South,4.6,-,N/A,,Overcast,190,2012-12-28 06:15:00
12:35 AM,30.2,24.8,80,29.95,10.0,WSW,3.5,-,N/A,,Overcast,240,2012-12-28 06:35:00
12:55 AM,30.2,24.8,80,29.96,10.0,SW,5.8,-,N/A,,Overcast,220,2012-12-28 06:55:00
1:15 AM,30.2,24.8,80,29.96,10.0,Calm,Calm,-,N/A,,Overcast,0,2012-12-28 07:15:00
1:35 AM,30.2,24.8,80,29.96,10.0,Calm,Calm,-,N/A,,Overcast,0,2012-12-28 07:35:00
1:55 AM,30.2,24.8,80,29.96,10.0,WNW,4.6,-,N/A,,Overcast,300,2012-12-28 07:55:00
2:15 AM,30.2,24.8,80,29.96,10.0,WNW,4.6,-,N/A,,Overcast,300,2012-12-28 08:15:00
2:35 AM,30.2,23.0,75,29.96,10.0,NW,5.8,-,N/A,,Overcast,320,2012-12-28 08:35:00
2:55 AM,30.2,21.2,69,29.97,10.0,NNW,8.1,-,N/A,,Overcast,340,2012-12-28 08:55:00
3:15 AM,30.2,21.2,69,29.98,10.0,NNW,10.4,-,N/A,,Overcast,340,2012-12-28 09:15:00
3:35 AM,30.2,19.4,64,30.00,10.0,NNW,11.5,-,N/A,,Overcast,340,2012-12-28 09:35:00
3:55 AM,30.2,21.2,69,29.98,10.0,North,12.7,-,N/A,,Overcast,350,2012-12-28 09:55:00
4:15 AM,30.2,21.2,69,29.98,10.0,NNW,13.8,-,N/A,,Overcast,340,2012-12-28 10:15:00
4:35 AM,28.4,21.2,74,29.97,10.0,NNW,16.1,-,N/A,,Overcast,340,2012-12-28 10:35:00
4:55 AM,28.4,21.2,74,29.97,10.0,NNW,12.7,-,N/A,,Overcast,340,2012-12-28 10:55:00
5:15 AM,28.4,19.4,69,29.96,10.0,NNW,17.3,20.7,N/A,,Overcast,330,2012-12-28 11:15:00
5:35 AM,28.4,19.4,69,29.96,10.0,NNW,16.1,-,N/A,,Overcast,340,2012-12-28 11:35:00
5:55 AM,28.4,19.4,69,29.97,10.0,NNW,15.0,-,N/A,,Overcast,340,2012-12-28 11:55:00
6:15 AM,28.4,19.4,69,29.98,10.0,NNW,17.3,-,N/A,,Overcast,340,2012-12-28 12:15:00
6:35 AM,28.4,19.4,69,29.98,10.0,North,16.1,-,N/A,,Overcast,350,2012-12-28 12:35:00
6:55 AM,28.4,17.6,64,29.99,10.0,NNW,12.7,18.4,N/A,,Overcast,340,2012-12-28 12:55:00
7:15 AM,28.4,17.6,64,29.99,10.0,NNW,12.7,18.4,N/A,,Overcast,340,2012-12-28 13:15:00
7:35 AM,28.4,17.6,64,29.99,10.0,NNW,15.0,18.4,N/A,,Overcast,340,2012-12-28 13:35:00
7:55 AM,28.4,17.6,64,30.00,10.0,NNW,12.7,-,N/A,,Overcast,340,2012-12-28 13:55:00
8:15 AM,28.4,17.6,64,30.01,10.0,NNW,11.5,-,N/A,,Overcast,340,2012-12-28 14:15:00
8:35 AM,28.4,17.6,64,30.02,10.0,NNW,13.8,-,N/A,,Overcast,330,2012-12-28 14:35:00
8:55 AM,28.4,17.6,64,30.02,10.0,NNW,13.8,17.3,N/A,,Overcast,330,2012-12-28 14:55:00
9:15 AM,28.4,17.6,64,30.03,10.0,NW,12.7,18.4,N/A,,Overcast,320,2012-12-28 15:15:00
9:35 AM,28.4,17.6,64,30.03,10.0,NW,15.0,-,N/A,,Overcast,320,2012-12-28 15:35:00
9:55 AM,28.4,17.6,64,30.05,10.0,NW,13.8,-,N/A,,Overcast,320,2012-12-28 15:55:00
10:15 AM,28.4,17.6,64,30.05,10.0,NNW,13.8,-,N/A,,Overcast,330,2012-12-28 16:15:00
10:35 AM,28.4,17.6,64,30.06,10.0,NNW,17.3,-,N/A,,Overcast,330,2012-12-28 16:35:00
10:55 AM,28.4,15.8,59,30.06,10.0,NW,17.3,21.9,N/A,,Mostly Cloudy,320,2012-12-28 16:55:00
11:15 AM,28.4,15.8,59,30.05,10.0,NNW,19.6,-,N/A,,Overcast,330,2012-12-28 17:15:00
11:35 AM,28.4,15.8,59,30.05,10.0,NW,16.1,23.0,N/A,,Scattered Clouds,320,2012-12-28 17:35:00
11:55 AM,30.2,15.8,55,30.04,10.0,NNW,16.1,20.7,N/A,,Clear,340,2012-12-28 17:55:00
12:15 PM,32.0,15.8,51,30.03,10.0,NNW,15.0,-,N/A,,Partly Cloudy,330,2012-12-28 18:15:00
12:35 PM,32.0,15.8,51,30.03,10.0,NNW,17.3,20.7,N/A,,Partly Cloudy,330,2012-12-28 18:35:00
12:55 PM,32.0,14.0,48,30.03,10.0,NNW,13.8,23.0,N/A,,Scattered Clouds,330,2012-12-28 18:55:00
1:15 PM,32.0,14.0,48,30.02,10.0,NW,16.1,-,N/A,,Scattered Clouds,310,2012-12-28 19:15:00
1:35 PM,32.0,12.2,44,30.02,10.0,NW,13.8,-,N/A,,Scattered Clouds,320,2012-12-28 19:35:00
1:55 PM,32.0,12.2,44,30.02,10.0,NNW,12.7,-,N/A,,Clear,330,2012-12-28 19:55:00
2:15 PM,32.0,10.4,41,30.01,10.0,NNW,16.1,-,N/A,,Clear,340,2012-12-28 20:15:00
2:35 PM,32.0,10.4,41,30.01,10.0,NW,15.0,24.2,N/A,,Clear,320,2012-12-28 20:35:00
2:55 PM,32.0,8.6,38,30.01,10.0,NNW,19.6,23.0,N/A,,Clear,330,2012-12-28 20:55:00
3:15 PM,32.0,8.6,38,30.02,10.0,NW,18.4,-,N/A,,Clear,320,2012-12-28 21:15:00
3:35 PM,32.0,8.6,38,30.02,10.0,NW,19.6,-,N/A,,Clear,320,2012-12-28 21:35:00
3:55 PM,32.0,6.8,35,30.02,10.0,NNW,19.6,-,N/A,,Clear,330,2012-12-28 21:55:00
4:35 PM,32.0,6.8,35,30.04,10.0,NNW,19.6,23.0,N/A,,Clear,330,2012-12-28 22:35:00
4:55 PM,30.2,6.8,37,30.05,10.0,NNW,16.1,-,N/A,,Clear,330,2012-12-28 22:55:00
5:15 PM,28.4,6.8,40,30.05,10.0,NNW,12.7,-,N/A,,Clear,330,2012-12-28 23:15:00
5:35 PM,26.6,6.8,43,30.06,10.0,NNW,9.2,-,N/A,,Clear,330,2012-12-28 23:35:00
5:55 PM,26.6,6.8,43,30.07,10.0,NNW,9.2,-,N/A,,Clear,330,2012-12-28 23:55:00
6:15 PM,24.8,6.8,46,30.08,10.0,NW,8.1,-,N/A,,Partly Cloudy,320,2012-12-29 00:15:00
6:35 PM,24.8,6.8,46,30.09,10.0,NW,8.1,-,N/A,,Partly Cloudy,320,2012-12-29 00:35:00
6:55 PM,23.0,6.8,50,30.10,10.0,NW,6.9,-,N/A,,Partly Cloudy,320,2012-12-29 00:55:00
7:15 PM,21.2,6.8,54,30.11,10.0,NW,10.4,-,N/A,,Partly Cloudy,320,2012-12-29 01:15:00
7:35 PM,21.2,6.8,54,30.11,10.0,NW,9.2,-,N/A,,Clear,310,2012-12-29 01:35:00
7:55 PM,21.2,6.8,54,30.12,10.0,WNW,9.2,-,N/A,,Clear,300,2012-12-29 01:55:00
8:15 PM,21.2,6.8,54,30.13,10.0,NW,10.4,-,N/A,,Clear,310,2012-12-29 02:15:00
8:35 PM,19.4,6.8,58,30.13,10.0,NW,9.2,-,N/A,,Clear,320,2012-12-29 02:35:00
8:55 PM,19.4,6.8,58,30.13,10.0,NW,9.2,-,N/A,,Clear,320,2012-12-29 02:55:00
9:15 PM,19.4,6.8,58,30.13,10.0,WNW,8.1,-,N/A,,Clear,300,2012-12-29 03:15:00
9:35 PM,19.4,6.8,58,30.14,10.0,WNW,9.2,-,N/A,,Scattered Clouds,300,2012-12-29 03:35:00
9:55 PM,17.6,6.8,63,30.15,10.0,WNW,9.2,-,N/A,,Scattered Clouds,300,2012-12-29 03:55:00
10:15 PM,17.6,6.8,63,30.15,10.0,NW,9.2,-,N/A,,Clear,310,2012-12-29 04:15:00
10:35 PM,17.6,6.8,63,30.16,10.0,WNW,8.1,-,N/A,,Clear,300,2012-12-29 04:35:00
10:55 PM,17.6,6.8,63,30.16,10.0,NW,10.4,-,N/A,,Clear,310,2012-12-29 04:55:00
11:15 PM,17.6,6.8,63,30.17,10.0,NW,8.1,-,N/A,,Clear,310,2012-12-29 05:15:00
11:35 PM,15.8,6.8,68,30.18,10.0,WNW,9.2,-,N/A,,Clear,300,2012-12-29 05:35:00
11:55 PM,15.8,6.8,68,30.18,10.0,NW,10.4,-,N/A,,Clear,310,2012-12-29 05:55:00